Location: Asheville, NC
(35.6000°N, 82.5500°W)
Time: 01:50:06
(UTC-05:00)

XW-2D - Pass Details

Date: 16 February 2018
Orbit: 509 x 531 km, 97.5° (Epoch: 21 February)

Event Time Altitude Azimuth Distance (km) Brightness Sun altitude
Rises 05:41:01 0° 31° (NNE) 2,624 ? -19.9°
Reaches altitude 10° 05:43:38 10° 50° (NE) 1,736 ? -19.4°
Maximum altitude 05:46:15 18° 95° (E) 1,310 ? -18.8°
Drops below altitude 10° 05:48:51 10° 139° (SE) 1,734 ? -18.3°
Sets 05:51:28 0° 159° (SSE) 2,620 ? -17.8°
